Time,TemperatureF,DewpointF,PressureIn,WindDirection,WindDirectionDegrees,WindSpeedMPH,WindSpeedGustMPH,Humidity,HourlyPrecipIn,Conditions,Clouds,dailyrainin,SolarRadiationWatts/m^2,SoftwareType,DateUTC
2013-12-28 00:01:00,51.1,29.9,30.19,NE,45,2.4,2.4,44,0.00,CLR,,0.00,0.0,WeatherDisplay:10.37,2013-12-28 06:01:00,
2013-12-28 00:06:00,51.1,30.5,30.19,NNE,22,3.5,3.5,45,0.00,CLR,,0.00,0.0,WeatherDisplay:10.37,2013-12-28 06:06:00,
2013-12-28 00:11:00,51.1,30.5,30.19,NE,45,2.3,2.3,45,0.00,CLR,,0.00,0.0,WeatherDisplay:10.37,2013-12-28 06:11:00,
2013-12-28 00:16:00,51.1,30.5,30.19,NNE,22,2.3,2.3,45,0.00,CLR,,0.00,0.0,WeatherDisplay:10.37,2013-12-28 06:16:00,
2013-12-28 00:21:00,51.1,30.5,30.19,NNW,338,1.4,1.4,45,0.00,CLR,,0.00,0.0,WeatherDisplay:10.37,2013-12-28 06:21:00,
2013-12-28 00:26:00,51.1,30.5,30.19,ENE,68,1.6,0.0,45,0.00,CLR,,0.00,0.0,WeatherDisplay:10.37,2013-12-28 06:26:00,
2013-12-28 00:31:00,51.3,30.6,30.19,NNE,22,1.6,1.6,45,0.00,CLR,,0.00,0.0,WeatherDisplay:10.37,2013-12-28 06:31:00,
2013-12-28 00:36:00,51.3,30.6,30.19,NNE,22,1.2,1.2,45,0.00,CLR,,0.00,0.0,WeatherDisplay:10.37,2013-12-28 06:36:00,
2013-12-28 00:41:00,51.1,30.5,30.19,NNE,22,2.3,0.0,45,0.00,CLR,,0.00,0.0,WeatherDisplay:10.37,2013-12-28 06:41:00,
2013-12-28 00:46:00,51.1,31.0,30.19,North,0,0.0,0.0,46,0.00,CLR,,0.00,0.0,WeatherDisplay:10.37,2013-12-28 06:46:00,
2013-12-28 00:51:00,50.9,31.4,30.19,NE,45,1.2,0.0,47,0.00,CLR,,0.00,0.0,WeatherDisplay:10.37,2013-12-28 06:51:00,
2013-12-28 00:56:00,50.9,31.4,30.19,North,0,1.2,1.2,47,0.00,CLR,,0.00,0.0,WeatherDisplay:10.37,2013-12-28 06:56:00,
2013-12-28 01:01:00,50.7,31.7,30.19,NW,315,1.2,0.0,48,0.00,CLR,,0.00,0.0,WeatherDisplay:10.37,2013-12-28 07:01:00,
2013-12-28 01:06:00,50.4,31.9,30.19,NE,45,0.0,0.0,49,0.00,CLR,,0.00,0.0,WeatherDisplay:10.37,2013-12-28 07:06:00,
2013-12-28 01:11:00,50.2,32.7,30.19,North,0,0.0,0.0,51,0.00,CLR,,0.00,0.0,WeatherDisplay:10.37,2013-12-28 07:11:00,
2013-12-28 01:16:00,49.8,33.8,30.19,NNW,338,0.0,0.0,54,0.00,CLR,,0.00,0.0,WeatherDisplay:10.37,2013-12-28 07:16:00,
2013-12-28 01:21:00,49.3,34.7,30.19,North,0,0.0,0.0,57,0.00,CLR,,0.00,0.0,WeatherDisplay:10.37,2013-12-28 07:21:00,
2013-12-28 01:26:00,48.7,35.9,30.19,North,0,0.0,0.0,61,0.00,CLR,,0.00,0.0,WeatherDisplay:10.37,2013-12-28 07:26:00,
2013-12-28 01:31:00,48.4,36.4,30.19,North,0,0.0,0.0,63,0.00,CLR,,0.00,0.0,WeatherDisplay:10.37,2013-12-28 07:31:00,
2013-12-28 01:36:00,48.0,36.4,30.19,NNW,338,0.0,0.0,64,0.00,CLR,,0.00,0.0,WeatherDisplay:10.37,2013-12-28 07:36:00,
2013-12-28 01:41:00,47.8,37.0,30.19,NNW,338,1.4,0.0,66,0.00,CLR,,0.00,0.0,WeatherDisplay:10.37,2013-12-28 07:41:00,
2013-12-28 01:46:00,47.5,37.1,30.19,NNW,338,0.0,0.0,67,0.04,RA,,0.04,0.0,WeatherDisplay:10.37,2013-12-28 07:46:00,
2013-12-28 01:51:00,47.3,37.3,30.19,North,0,1.2,1.2,68,0.04,RA,,0.04,0.0,WeatherDisplay:10.37,2013-12-28 07:51:00,
2013-12-28 01:56:00,46.9,37.3,30.19,NNE,22,2.3,2.3,69,0.04,CLR,,0.04,0.0,WeatherDisplay:10.37,2013-12-28 07:56:00,
2013-12-28 02:01:00,46.8,37.9,30.19,North,0,1.2,1.2,71,0.09,RA,,0.09,0.0,WeatherDisplay:10.37,2013-12-28 08:01:00,
2013-12-28 02:06:00,46.4,38.2,30.19,NNE,22,1.2,1.4,73,0.09,RA,,0.09,0.0,WeatherDisplay:10.37,2013-12-28 08:06:00,
2013-12-28 02:11:00,46.2,39.1,30.16,NNE,22,2.3,2.3,76,0.09,CLR,,0.09,0.0,WeatherDisplay:10.37,2013-12-28 08:11:00,
2013-12-28 02:16:00,46.2,39.1,30.16,NNE,22,1.2,0.0,76,0.13,RA,,0.13,0.0,WeatherDisplay:10.37,2013-12-28 08:16:00,
2013-12-28 02:21:00,46.0,39.2,30.16,NE,45,1.2,0.0,77,0.13,RA,,0.13,0.0,WeatherDisplay:10.37,2013-12-28 08:21:00,
2013-12-28 02:26:00,45.9,40.0,30.16,NNW,338,1.4,1.6,80,0.13,CLR,,0.13,0.0,WeatherDisplay:10.37,2013-12-28 08:26:00,
2013-12-28 02:31:00,45.9,40.4,30.16,NNE,22,2.3,2.3,81,0.17,RA,,0.17,0.0,WeatherDisplay:10.37,2013-12-28 08:31:00,
2013-12-28 02:36:00,45.7,40.2,30.16,NNE,22,2.3,2.3,81,0.17,RA,,0.17,0.0,WeatherDisplay:10.37,2013-12-28 08:36:00,
2013-12-28 02:41:00,45.5,40.3,30.16,NE,45,1.2,1.2,82,0.17,CLR,,0.17,0.0,WeatherDisplay:10.37,2013-12-28 08:41:00,
2013-12-28 02:46:00,45.5,40.6,30.16,NNE,22,1.2,0.0,83,0.17,RA,,0.21,0.0,WeatherDisplay:10.37,2013-12-28 08:46:00,
2013-12-28 02:51:00,45.5,40.3,30.16,North,0,2.4,0.0,82,0.17,RA,,0.21,0.0,WeatherDisplay:10.37,2013-12-28 08:51:00,
2013-12-28 02:56:00,45.5,40.3,30.13,NNE,22,0.0,0.0,82,0.17,CLR,,0.21,0.0,WeatherDisplay:10.37,2013-12-28 08:56:00,
2013-12-28 03:01:00,45.5,40.6,30.13,WNW,292,1.2,1.2,83,0.12,CLR,,0.21,0.0,WeatherDisplay:10.37,2013-12-28 09:01:00,
2013-12-28 03:06:00,45.5,40.6,30.13,NE,45,0.0,0.0,83,0.12,CLR,,0.21,0.0,WeatherDisplay:10.37,2013-12-28 09:06:00,
2013-12-28 03:11:00,45.5,40.6,30.13,ENE,68,0.0,0.0,83,0.12,CLR,,0.21,0.0,WeatherDisplay:10.37,2013-12-28 09:11:00,
2013-12-28 03:16:00,45.7,41.1,30.13,ENE,68,0.0,0.0,84,0.08,CLR,,0.21,0.0,WeatherDisplay:10.37,2013-12-28 09:16:00,
2013-12-28 03:21:00,45.7,41.1,30.13,ENE,68,0.0,0.0,84,0.08,CLR,,0.21,0.0,WeatherDisplay:10.37,2013-12-28 09:21:00,
2013-12-28 03:26:00,45.7,41.1,30.16,NNE,22,0.0,0.0,84,0.08,CLR,,0.21,0.0,WeatherDisplay:10.37,2013-12-28 09:26:00,
2013-12-28 03:31:00,45.9,41.3,30.16,SSE,158,1.2,0.0,84,0.04,CLR,,0.21,0.0,WeatherDisplay:10.37,2013-12-28 09:31:00,
2013-12-28 03:36:00,45.9,41.6,30.16,NNE,22,1.2,0.0,85,0.04,CLR,,0.21,0.0,WeatherDisplay:10.37,2013-12-28 09:36:00,
2013-12-28 03:41:00,45.9,41.6,30.10,NNE,22,0.0,0.0,85,0.04,CLR,,0.21,0.0,WeatherDisplay:10.37,2013-12-28 09:41:00,
2013-12-28 03:46:00,45.9,41.6,30.10,NNW,338,1.2,0.0,85,0.00,CLR,,0.21,0.0,WeatherDisplay:10.37,2013-12-28 09:46:00,
2013-12-28 03:51:00,45.9,41.6,30.10,ENE,68,0.0,0.0,85,0.00,CLR,,0.21,0.0,WeatherDisplay:10.37,2013-12-28 09:51:00,
2013-12-28 03:56:00,45.9,41.9,30.10,ENE,68,2.0,2.0,86,0.00,CLR,,0.21,0.0,WeatherDisplay:10.37,2013-12-28 09:56:00,
2013-12-28 04:01:00,45.9,41.9,30.10,NE,45,2.3,2.3,86,0.00,CLR,,0.21,0.0,WeatherDisplay:10.37,2013-12-28 10:01:00,
2013-12-28 04:06:00,45.9,41.9,30.10,East,90,0.9,0.0,86,0.00,CLR,,0.21,0.0,WeatherDisplay:10.37,2013-12-28 10:06:00,
2013-12-28 04:11:00,45.9,41.9,30.13,ENE,68,2.3,2.3,86,0.00,CLR,,0.21,0.0,WeatherDisplay:10.37,2013-12-28 10:11:00,
2013-12-28 04:16:00,45.9,42.5,30.13,ENE,68,2.3,2.3,88,0.00,CLR,,0.21,0.0,WeatherDisplay:10.37,2013-12-28 10:16:00,
2013-12-28 04:21:00,45.9,42.5,30.13,NNE,22,1.4,1.4,88,0.00,CLR,,0.21,0.0,WeatherDisplay:10.37,2013-12-28 10:21:00,
2013-12-28 04:26:00,45.9,42.5,30.13,NE,45,1.2,0.0,88,0.00,CLR,,0.21,0.0,WeatherDisplay:10.37,2013-12-28 10:26:00,
2013-12-28 04:31:00,45.9,42.5,30.13,NNW,338,1.2,0.0,88,0.00,CLR,,0.21,0.0,WeatherDisplay:10.37,2013-12-28 10:31:00,
2013-12-28 04:36:00,45.7,42.3,30.13,North,0,1.2,1.2,88,0.04,RA,,0.25,0.0,WeatherDisplay:10.37,2013-12-28 10:36:00,
2013-12-28 04:41:00,45.7,42.3,30.10,ENE,68,1.2,0.0,88,0.04,RA,,0.25,0.0,WeatherDisplay:10.37,2013-12-28 10:41:00,
2013-12-28 04:46:00,45.7,42.3,30.10,North,0,1.2,0.0,88,0.04,CLR,,0.25,0.0,WeatherDisplay:10.37,2013-12-28 10:46:00,
2013-12-28 04:51:00,45.7,42.3,30.10,NE,45,2.3,2.3,88,0.08,RA,,0.29,0.0,WeatherDisplay:10.37,2013-12-28 10:51:00,
2013-12-28 04:56:00,45.7,42.6,30.13,NE,45,1.2,1.2,89,0.08,RA,,0.29,0.0,WeatherDisplay:10.37,2013-12-28 10:56:00,
2013-12-28 05:01:00,45.7,42.6,30.13,ENE,68,3.5,3.5,89,0.08,CLR,,0.29,0.0,WeatherDisplay:10.37,2013-12-28 11:01:00,
2013-12-28 05:02:00,45.5,42.4,30.13,North,0,2.3,2.3,89,0.08,CLR,,0.29,0.0,WeatherDisplay:10.37,2013-12-28 11:02:00,
2013-12-28 05:07:00,45.5,42.4,30.13,NE,45,1.2,0.0,89,0.12,RA,,0.33,0.0,WeatherDisplay:10.37,2013-12-28 11:07:00,
2013-12-28 05:12:00,45.5,42.7,30.13,NNE,22,2.4,2.4,90,0.12,RA,,0.33,0.0,WeatherDisplay:10.37,2013-12-28 11:12:00,
2013-12-28 05:17:00,45.5,42.7,30.13,East,90,1.4,1.4,90,0.12,CLR,,0.33,0.0,WeatherDisplay:10.37,2013-12-28 11:17:00,
2013-12-28 05:22:00,45.5,42.7,30.13,NE,45,2.3,2.3,90,0.16,RA,,0.37,0.0,WeatherDisplay:10.37,2013-12-28 11:22:00,
2013-12-28 05:27:00,45.5,43.0,30.13,NNE,22,3.5,3.5,91,0.16,RA,,0.37,0.0,WeatherDisplay:10.37,2013-12-28 11:27:00,
2013-12-28 05:32:00,45.5,43.0,30.13,ENE,68,0.0,0.0,91,0.16,CLR,,0.37,0.0,WeatherDisplay:10.37,2013-12-28 11:32:00,
2013-12-28 05:37:00,45.5,43.0,30.13,ENE,68,2.3,2.3,91,0.12,CLR,,0.37,0.0,WeatherDisplay:10.37,2013-12-28 11:37:00,
2013-12-28 05:42:00,45.7,43.2,30.13,East,90,2.3,2.3,91,0.12,CLR,,0.37,0.0,WeatherDisplay:10.37,2013-12-28 11:42:00,
2013-12-28 05:47:00,45.7,43.2,30.13,NNW,338,3.8,3.8,91,0.12,CLR,,0.37,0.0,WeatherDisplay:10.37,2013-12-28 11:47:00,
2013-12-28 05:52:00,45.7,43.2,30.13,NE,45,2.3,2.3,91,0.08,CLR,,0.37,0.0,WeatherDisplay:10.37,2013-12-28 11:52:00,
2013-12-28 05:57:00,45.7,43.2,30.13,ENE,68,2.3,2.3,91,0.08,CLR,,0.37,0.0,WeatherDisplay:10.37,2013-12-28 11:57:00,
2013-12-28 06:02:00,45.7,43.2,30.13,ENE,68,1.2,1.2,91,0.13,RA,,0.42,0.0,WeatherDisplay:10.37,2013-12-28 12:02:00,
2013-12-28 06:07:00,45.9,43.4,30.13,ENE,68,2.3,2.3,91,0.09,RA,,0.42,0.0,WeatherDisplay:10.37,2013-12-28 12:07:00,
2013-12-28 06:12:00,45.7,43.2,30.13,NE,45,2.3,2.3,91,0.09,CLR,,0.42,0.0,WeatherDisplay:10.37,2013-12-28 12:12:00,
2013-12-28 06:17:00,45.7,43.2,30.13,ENE,68,2.3,2.3,91,0.13,RA,,0.46,0.0,WeatherDisplay:10.37,2013-12-28 12:17:00,
2013-12-28 06:22:00,45.9,43.4,30.13,ESE,112,2.3,2.3,91,0.09,RA,,0.46,0.0,WeatherDisplay:10.37,2013-12-28 12:22:00,
2013-12-28 06:27:00,45.9,43.4,30.13,North,0,4.6,4.6,91,0.09,CLR,,0.46,0.0,WeatherDisplay:10.37,2013-12-28 12:27:00,
2013-12-28 06:32:00,45.9,43.4,30.13,ENE,68,2.3,2.3,91,0.09,,,0.46,0.0,WeatherDisplay:10.37,2013-12-28 12:32:00,
2013-12-28 06:37:00,45.9,43.4,30.13,North,0,2.6,2.6,91,0.13,RA,,0.50,0.0,WeatherDisplay:10.37,2013-12-28 12:37:00,
2013-12-28 06:42:00,45.9,43.4,30.13,NE,45,2.3,2.3,91,0.13,RA,,0.50,0.0,WeatherDisplay:10.37,2013-12-28 12:42:00,
2013-12-28 06:47:00,45.9,43.4,30.13,NE,45,2.3,2.3,91,0.13,,,0.50,0.0,WeatherDisplay:10.37,2013-12-28 12:47:00,
2013-12-28 06:52:00,45.9,43.4,30.10,ENE,68,2.3,2.3,91,0.17,RA,,0.54,0.0,WeatherDisplay:10.37,2013-12-28 12:52:00,
2013-12-28 06:57:00,46.0,43.6,30.10,ENE,68,2.3,2.3,91,0.17,RA,,0.54,0.0,WeatherDisplay:10.37,2013-12-28 12:57:00,
2013-12-28 07:02:00,46.0,43.6,30.10,NNE,22,2.3,2.3,91,0.12,,,0.54,0.0,WeatherDisplay:10.37,2013-12-28 13:02:00,
2013-12-28 07:07:00,46.0,43.6,30.10,ENE,68,3.5,3.5,91,0.12,,,0.54,0.0,WeatherDisplay:10.37,2013-12-28 13:07:00,
2013-12-28 07:12:00,46.2,43.7,30.10,East,90,1.2,1.4,91,0.12,,,0.54,0.0,WeatherDisplay:10.37,2013-12-28 13:12:00,
2013-12-28 07:17:00,46.2,43.7,30.10,ENE,68,1.2,1.2,91,0.08,,,0.54,0.0,WeatherDisplay:10.37,2013-12-28 13:17:00,
2013-12-28 07:22:00,46.4,43.9,30.10,NE,45,3.5,3.5,91,0.08,,,0.54,0.0,WeatherDisplay:10.37,2013-12-28 13:22:00,
2013-12-28 07:27:00,46.4,43.9,30.10,ENE,68,4.0,4.0,91,0.12,RA,,0.58,0.0,WeatherDisplay:10.37,2013-12-28 13:27:00,
2013-12-28 07:32:00,46.6,44.1,30.10,ENE,68,5.4,5.4,91,0.12,RA,,0.58,0.0,WeatherDisplay:10.37,2013-12-28 13:32:00,
2013-12-28 07:37:00,46.6,44.1,30.10,NNE,22,3.5,3.5,91,0.08,,,0.58,0.0,WeatherDisplay:10.37,2013-12-28 13:37:00,
2013-12-28 07:42:00,46.8,44.3,30.10,ENE,68,8.1,8.1,91,0.08,,,0.58,0.0,WeatherDisplay:10.37,2013-12-28 13:42:00,
2013-12-28 07:47:00,46.9,44.4,30.10,ENE,68,8.1,8.1,91,0.08,,,0.58,0.0,WeatherDisplay:10.37,2013-12-28 13:47:00,
2013-12-28 07:52:00,46.9,44.4,30.10,ENE,68,4.9,4.9,91,0.04,,,0.58,0.0,WeatherDisplay:10.37,2013-12-28 13:52:00,
2013-12-28 07:57:00,47.1,44.6,30.10,ESE,112,4.6,4.6,91,0.04,,,0.58,0.0,WeatherDisplay:10.37,2013-12-28 13:57:00,
2013-12-28 08:02:00,47.1,44.6,30.10,SSE,158,2.3,2.3,91,0.04,,,0.58,0.0,WeatherDisplay:10.37,2013-12-28 14:02:00,
2013-12-28 08:07:00,47.3,44.8,30.07,East,90,6.9,6.9,91,0.04,,,0.58,0.0,WeatherDisplay:10.37,2013-12-28 14:07:00,
2013-12-28 08:12:00,47.3,44.8,30.07,ENE,68,3.5,3.5,91,0.04,,,0.58,0.0,WeatherDisplay:10.37,2013-12-28 14:12:00,
2013-12-28 08:17:00,47.5,45.0,30.07,ENE,68,5.8,5.8,91,0.04,,,0.58,0.0,WeatherDisplay:10.37,2013-12-28 14:17:00,
2013-12-28 08:22:00,47.5,45.0,30.07,ENE,68,2.6,2.9,91,0.04,,,0.58,0.0,WeatherDisplay:10.37,2013-12-28 14:22:00,
2013-12-28 08:27:00,47.7,45.2,30.07,East,90,4.6,4.6,91,0.00,,,0.58,0.0,WeatherDisplay:10.37,2013-12-28 14:27:00,
2013-12-28 08:32:00,47.7,45.2,30.07,ENE,68,2.4,2.4,91,0.04,RA,,0.62,0.0,WeatherDisplay:10.37,2013-12-28 14:32:00,
2013-12-28 08:37:00,47.8,45.3,30.10,NE,45,5.8,5.8,91,0.04,RA,,0.62,0.0,WeatherDisplay:10.37,2013-12-28 14:37:00,
2013-12-28 08:42:00,47.8,45.3,30.10,ENE,68,1.2,0.0,91,0.04,,,0.62,0.0,WeatherDisplay:10.37,2013-12-28 14:42:00,
2013-12-28 08:47:00,48.0,45.5,30.10,NE,45,3.5,3.5,91,0.08,RA,,0.67,0.0,WeatherDisplay:10.37,2013-12-28 14:47:00,
2013-12-28 08:52:00,48.0,45.5,30.10,ENE,68,2.6,2.6,91,0.08,RA,,0.67,0.0,WeatherDisplay:10.37,2013-12-28 14:52:00,
2013-12-28 08:57:00,48.0,45.5,30.10,North,0,1.6,1.6,91,0.17,RA,,0.76,0.0,WeatherDisplay:10.37,2013-12-28 14:57:00,
2013-12-28 09:02:00,48.2,45.7,30.10,NE,45,1.2,1.4,91,0.17,RA,,0.76,0.0,WeatherDisplay:10.37,2013-12-28 15:02:00,
2013-12-28 09:07:00,48.2,45.7,30.13,NNE,22,2.3,2.3,91,0.21,RA,,0.80,0.0,WeatherDisplay:10.37,2013-12-28 15:07:00,
2013-12-28 09:12:00,48.2,45.7,30.13,NE,45,2.3,2.3,91,0.25,RA,,0.83,0.0,WeatherDisplay:10.37,2013-12-28 15:12:00,
2013-12-28 09:17:00,48.2,45.7,30.13,NNE,22,2.3,2.3,91,0.29,RA,,0.93,0.0,WeatherDisplay:10.37,2013-12-28 15:17:00,
2013-12-28 09:22:00,48.2,45.7,30.10,NNW,338,2.4,2.4,91,0.38,RA,,0.96,0.0,WeatherDisplay:10.37,2013-12-28 15:22:00,
2013-12-28 09:27:00,48.2,45.7,30.10,North,0,2.3,2.3,91,0.43,RA,,1.01,0.0,WeatherDisplay:10.37,2013-12-28 15:27:00,
2013-12-28 09:32:00,48.4,45.9,30.10,NE,45,3.5,3.5,91,0.39,RA,,1.01,0.0,WeatherDisplay:10.37,2013-12-28 15:32:00,
2013-12-28 09:37:00,48.4,45.9,30.10,NE,45,3.5,3.5,91,0.43,RA,,1.05,0.0,WeatherDisplay:10.37,2013-12-28 15:37:00,
2013-12-28 09:42:00,48.4,45.9,30.10,NE,45,4.6,4.6,91,0.43,RA,,1.05,0.0,WeatherDisplay:10.37,2013-12-28 15:42:00,
2013-12-28 09:47:00,48.4,45.9,30.10,NE,45,2.3,2.3,91,0.38,,,1.05,0.0,WeatherDisplay:10.37,2013-12-28 15:47:00,
2013-12-28 09:52:00,48.4,45.9,30.10,NNE,22,3.8,3.8,91,0.38,,,1.05,0.0,WeatherDisplay:10.37,2013-12-28 15:52:00,
2013-12-28 09:57:00,48.4,45.9,30.10,East,90,3.5,3.5,91,0.29,,,1.05,0.0,WeatherDisplay:10.37,2013-12-28 15:57:00,
2013-12-28 10:02:00,48.6,46.1,30.10,NNE,22,2.4,2.4,91,0.29,,,1.05,0.0,WeatherDisplay:10.37,2013-12-28 16:02:00,
2013-12-28 10:07:00,48.6,46.1,30.10,NNE,22,2.3,2.3,91,0.25,,,1.05,0.0,WeatherDisplay:10.37,2013-12-28 16:07:00,
2013-12-28 10:12:00,48.6,46.1,30.10,NNW,338,3.5,3.5,91,0.21,,,1.05,0.0,WeatherDisplay:10.37,2013-12-28 16:12:00,
2013-12-28 10:17:00,48.6,46.1,30.10,NNW,338,1.2,0.0,91,0.21,RA,,1.09,0.0,WeatherDisplay:10.37,2013-12-28 16:17:00,
2013-12-28 10:22:00,48.7,46.2,30.10,NNW,338,3.5,3.5,91,0.12,RA,,1.09,0.0,WeatherDisplay:10.37,2013-12-28 16:22:00,
2013-12-28 10:27:00,48.7,46.2,30.10,NE,45,4.6,4.6,91,0.08,,,1.09,0.0,WeatherDisplay:10.37,2013-12-28 16:27:00,
2013-12-28 10:32:00,48.7,46.2,30.10,NNE,22,1.4,1.4,91,0.08,,,1.09,0.0,WeatherDisplay:10.37,2013-12-28 16:32:00,
2013-12-28 10:40:00,48.6,46.1,30.10,North,0,3.5,3.5,91,0.08,RA,,1.13,0.0,WeatherDisplay:10.37,2013-12-28 16:40:00,
2013-12-28 10:45:00,48.6,46.1,30.07,NNE,22,3.5,3.5,91,0.08,RA,,1.13,0.0,WeatherDisplay:10.37,2013-12-28 16:45:00,
2013-12-28 10:50:00,48.6,46.1,30.07,North,0,2.4,2.4,91,0.08,,,1.13,0.0,WeatherDisplay:10.37,2013-12-28 16:50:00,
2013-12-28 10:55:00,48.6,46.1,30.04,NNW,338,3.5,3.5,91,0.08,,,1.13,0.0,WeatherDisplay:10.37,2013-12-28 16:55:00,
2013-12-28 11:00:00,48.7,46.2,30.04,ENE,68,2.3,2.3,91,0.12,RA,,1.17,0.0,WeatherDisplay:10.37,2013-12-28 17:00:00,
2013-12-28 11:05:00,48.7,46.2,30.04,North,0,2.6,2.6,91,0.12,RA,,1.17,0.0,WeatherDisplay:10.37,2013-12-28 17:05:00,
2013-12-28 11:10:00,48.7,46.2,30.07,WNW,292,2.3,2.3,91,0.12,,,1.17,0.0,WeatherDisplay:10.37,2013-12-28 17:10:00,
2013-12-28 11:15:00,48.7,46.2,30.07,NNW,338,4.7,4.7,91,0.08,,,1.17,0.0,WeatherDisplay:10.37,2013-12-28 17:15:00,
2013-12-28 11:20:00,48.6,46.1,30.07,East,90,3.5,3.5,91,0.08,,,1.17,0.0,WeatherDisplay:10.37,2013-12-28 17:20:00,
2013-12-28 11:25:00,48.6,46.1,30.07,NNW,338,2.6,2.6,91,0.12,RA,,1.21,0.0,WeatherDisplay:10.37,2013-12-28 17:25:00,
2013-12-28 11:30:00,48.6,46.1,30.07,ENE,68,3.5,3.5,91,0.12,RA,,1.21,0.0,WeatherDisplay:10.37,2013-12-28 17:30:00,
2013-12-28 11:35:00,48.6,46.1,30.07,NE,45,4.6,4.6,91,0.08,,,1.21,0.0,WeatherDisplay:10.37,2013-12-28 17:35:00,
2013-12-28 11:40:00,48.6,46.1,30.04,NE,45,3.5,3.5,91,0.08,,,1.21,0.0,WeatherDisplay:10.37,2013-12-28 17:40:00,
2013-12-28 11:45:00,48.4,45.9,30.04,NE,45,2.3,2.3,91,0.08,,,1.21,0.0,WeatherDisplay:10.37,2013-12-28 17:45:00,
2013-12-28 11:50:00,48.4,45.9,30.04,NNW,338,3.5,3.5,91,0.08,,,1.21,0.0,WeatherDisplay:10.37,2013-12-28 17:50:00,
2013-12-28 11:55:00,48.4,45.9,30.01,North,0,3.5,3.5,91,0.13,RA,,1.26,0.0,WeatherDisplay:10.37,2013-12-28 17:55:00,
2013-12-28 12:00:00,48.4,45.9,30.01,NNW,338,3.5,3.5,91,0.13,RA,,1.30,0.0,WeatherDisplay:10.37,2013-12-28 18:00:00,
2013-12-28 12:05:00,48.6,46.1,30.01,NW,315,5.8,5.8,91,0.13,RA,,1.30,0.0,WeatherDisplay:10.37,2013-12-28 18:05:00,
2013-12-28 12:10:00,48.6,46.1,30.01,ENE,68,2.4,2.4,91,0.13,,,1.34,0.0,WeatherDisplay:10.37,2013-12-28 18:10:00,
2013-12-28 12:15:00,48.6,46.1,30.01,East,90,3.5,3.8,91,0.17,RA,,1.34,0.0,WeatherDisplay:10.37,2013-12-28 18:15:00,
2013-12-28 12:20:00,48.7,46.2,30.01,NNE,22,4.6,4.6,91,0.17,RA,,1.34,0.0,WeatherDisplay:10.37,2013-12-28 18:20:00,
2013-12-28 12:25:00,49.1,46.6,29.98,ENE,68,5.8,5.8,91,0.13,,,1.34,0.0,WeatherDisplay:10.37,2013-12-28 18:25:00,
2013-12-28 12:30:00,49.5,46.9,29.98,NW,315,4.6,4.6,91,0.13,,,1.34,0.0,WeatherDisplay:10.37,2013-12-28 18:30:00,
2013-12-28 12:35:00,49.6,47.1,29.98,NE,45,3.5,3.5,91,0.13,,,1.34,0.0,WeatherDisplay:10.37,2013-12-28 18:35:00,
2013-12-28 12:40:00,49.3,46.8,29.98,West,270,3.5,3.5,91,0.13,,,1.34,0.0,WeatherDisplay:10.37,2013-12-28 18:40:00,
2013-12-28 12:45:00,49.1,46.6,29.98,NNE,22,2.3,2.3,91,0.13,,,1.34,0.0,WeatherDisplay:10.37,2013-12-28 18:45:00,
2013-12-28 12:50:00,49.3,46.8,29.98,NE,45,2.6,2.6,91,0.13,,,1.34,0.0,WeatherDisplay:10.37,2013-12-28 18:50:00,
2013-12-28 12:55:00,49.5,46.9,29.98,NNW,338,3.1,3.1,91,0.08,,,1.34,0.0,WeatherDisplay:10.37,2013-12-28 18:55:00,
2013-12-28 13:00:00,49.5,46.9,29.98,NNE,22,3.5,3.5,91,0.04,,,1.34,0.0,WeatherDisplay:10.37,2013-12-28 19:00:00,
2013-12-28 13:05:00,49.3,46.8,29.98,North,0,2.6,2.6,91,0.04,,,1.34,0.0,WeatherDisplay:10.37,2013-12-28 19:05:00,
2013-12-28 13:10:00,49.3,46.8,29.98,NE,45,3.1,3.1,91,0.04,,,1.34,0.0,WeatherDisplay:10.37,2013-12-28 19:10:00,
2013-12-28 13:15:00,49.3,46.8,29.98,SSW,202,5.8,5.8,91,0.00,,,1.34,0.0,WeatherDisplay:10.37,2013-12-28 19:15:00,
2013-12-28 13:20:00,49.5,46.9,29.98,NE,45,4.6,4.6,91,0.04,RA,,1.38,0.0,WeatherDisplay:10.37,2013-12-28 19:20:00,
2013-12-28 13:25:00,49.5,46.9,29.95,East,90,3.5,3.5,91,0.04,RA,,1.38,0.0,WeatherDisplay:10.37,2013-12-28 19:25:00,
2013-12-28 13:30:00,49.5,46.9,29.95,ENE,68,3.5,3.5,91,0.04,,,1.38,0.0,WeatherDisplay:10.37,2013-12-28 19:30:00,
2013-12-28 13:35:00,49.3,46.8,29.95,ENE,68,3.5,3.5,91,0.04,,,1.38,0.0,WeatherDisplay:10.37,2013-12-28 19:35:00,
2013-12-28 13:40:00,49.3,46.8,29.95,ENE,68,4.6,4.6,91,0.04,,,1.38,0.0,WeatherDisplay:10.37,2013-12-28 19:40:00,
2013-12-28 13:45:00,49.3,46.8,29.95,NNE,22,4.6,4.6,91,0.04,,,1.38,0.0,WeatherDisplay:10.37,2013-12-28 19:45:00,
2013-12-28 13:50:00,49.1,46.6,29.95,NNE,22,3.5,3.5,91,0.04,,,1.38,0.0,WeatherDisplay:10.37,2013-12-28 19:50:00,
2013-12-28 13:55:00,49.1,46.6,29.95,NNE,22,3.5,3.5,91,0.04,,,1.38,0.0,WeatherDisplay:10.37,2013-12-28 19:55:00,
2013-12-28 14:00:00,49.1,46.6,29.95,NNE,22,3.5,3.5,91,0.04,,,1.38,0.0,WeatherDisplay:10.37,2013-12-28 20:00:00,
2013-12-28 14:05:00,49.1,46.6,29.95,ENE,68,4.6,4.6,91,0.08,RA,,1.42,0.0,WeatherDisplay:10.37,2013-12-28 20:05:00,
2013-12-28 14:10:00,49.1,46.6,29.95,North,0,2.3,2.3,91,0.08,RA,,1.42,0.0,WeatherDisplay:10.37,2013-12-28 20:10:00,
2013-12-28 14:15:00,49.1,46.6,29.95,ENE,68,2.3,2.3,91,0.08,,,1.42,0.0,WeatherDisplay:10.37,2013-12-28 20:15:00,
2013-12-28 14:20:00,49.3,46.8,29.95,ENE,68,2.3,2.3,91,0.04,,,1.42,0.0,WeatherDisplay:10.37,2013-12-28 20:20:00,
2013-12-28 14:25:00,49.1,46.6,29.95,NNW,338,3.5,3.5,91,0.04,,,1.42,0.0,WeatherDisplay:10.37,2013-12-28 20:25:00,
2013-12-28 14:30:00,49.1,46.6,29.95,NNE,22,2.4,2.4,91,0.04,,,1.42,0.0,WeatherDisplay:10.37,2013-12-28 20:30:00,
2013-12-28 14:35:00,49.3,46.8,29.95,NNE,22,3.5,3.5,91,0.04,,,1.42,0.0,WeatherDisplay:10.37,2013-12-28 20:35:00,
2013-12-28 14:40:00,49.3,46.8,29.95,NE,45,2.4,2.4,91,0.04,,,1.42,0.0,WeatherDisplay:10.37,2013-12-28 20:40:00,
2013-12-28 14:45:00,49.3,46.8,29.95,NNE,22,2.6,2.6,91,0.04,,,1.42,0.0,WeatherDisplay:10.37,2013-12-28 20:45:00,
2013-12-28 14:50:00,49.3,46.8,29.95,NW,315,2.3,2.3,91,0.04,,,1.42,0.0,WeatherDisplay:10.37,2013-12-28 20:50:00,
2013-12-28 14:55:00,49.5,46.9,29.95,NE,45,2.3,2.3,91,0.04,,,1.42,0.0,WeatherDisplay:10.37,2013-12-28 20:55:00,
2013-12-28 15:00:00,49.3,46.8,29.95,NNE,22,3.1,3.1,91,0.04,,,1.42,0.0,WeatherDisplay:10.37,2013-12-28 21:00:00,
2013-12-28 15:05:00,49.3,46.8,29.95,North,0,3.5,3.5,91,0.00,,,1.42,0.0,WeatherDisplay:10.37,2013-12-28 21:05:00,
2013-12-28 15:10:00,49.1,46.6,29.95,NNE,22,4.6,4.6,91,0.00,,,1.42,0.0,WeatherDisplay:10.37,2013-12-28 21:10:00,
2013-12-28 15:15:00,49.1,46.6,29.95,NNE,22,2.4,2.4,91,0.00,,,1.42,0.0,WeatherDisplay:10.37,2013-12-28 21:15:00,
2013-12-28 15:20:00,49.1,46.6,29.95,NNE,22,2.6,2.6,91,0.00,,,1.42,0.0,WeatherDisplay:10.37,2013-12-28 21:20:00,
2013-12-28 15:25:00,48.9,46.4,29.92,NE,45,4.6,4.6,91,0.00,,,1.42,0.0,WeatherDisplay:10.37,2013-12-28 21:25:00,
2013-12-28 15:30:00,48.9,46.4,29.92,NE,45,3.5,3.5,91,0.00,,,1.42,0.0,WeatherDisplay:10.37,2013-12-28 21:30:00,
2013-12-28 15:35:00,48.9,46.4,29.92,NNE,22,3.5,3.5,91,0.00,,,1.42,0.0,WeatherDisplay:10.37,2013-12-28 21:35:00,
2013-12-28 15:40:00,48.9,46.4,29.92,North,0,3.5,3.5,91,0.00,,,1.42,0.0,WeatherDisplay:10.37,2013-12-28 21:40:00,
2013-12-28 15:45:00,48.9,46.4,29.92,ENE,68,5.8,5.8,91,0.00,,,1.42,0.0,WeatherDisplay:10.37,2013-12-28 21:45:00,
2013-12-28 15:50:00,48.9,46.4,29.92,WNW,292,3.6,3.6,91,0.00,,,1.42,0.0,WeatherDisplay:10.37,2013-12-28 21:50:00,
2013-12-28 15:55:00,48.9,46.4,29.89,East,90,4.6,4.6,91,0.00,,,1.42,0.0,WeatherDisplay:10.37,2013-12-28 21:55:00,
2013-12-28 16:00:00,48.9,46.4,29.89,NW,315,3.5,3.5,91,0.00,,,1.42,0.0,WeatherDisplay:10.37,2013-12-28 22:00:00,
2013-12-28 16:05:00,48.9,46.4,29.89,ENE,68,2.3,2.3,91,0.00,,,1.42,0.0,WeatherDisplay:10.37,2013-12-28 22:05:00,
2013-12-28 16:10:00,48.7,46.2,29.92,NE,45,2.3,2.3,91,0.00,,,1.42,0.0,WeatherDisplay:10.37,2013-12-28 22:10:00,
2013-12-28 16:15:00,48.7,46.2,29.92,NNE,22,4.6,4.6,91,0.00,,,1.42,0.0,WeatherDisplay:10.37,2013-12-28 22:15:00,
2013-12-28 16:20:00,48.7,46.2,29.92,NNW,338,2.9,2.9,91,0.00,,,1.42,0.0,WeatherDisplay:10.37,2013-12-28 22:20:00,
2013-12-28 16:25:00,48.7,46.2,29.92,East,90,2.3,2.3,91,0.00,,,1.42,0.0,WeatherDisplay:10.37,2013-12-28 22:25:00,
2013-12-28 16:30:00,48.7,46.2,29.92,North,0,1.2,0.0,91,0.00,,,1.42,0.0,WeatherDisplay:10.37,2013-12-28 22:30:00,
2013-12-28 16:35:00,48.7,46.2,29.92,NE,45,1.2,0.0,91,0.00,,,1.42,0.0,WeatherDisplay:10.37,2013-12-28 22:35:00,
2013-12-28 16:40:00,48.7,46.2,29.95,NE,45,2.3,2.3,91,0.00,,,1.42,0.0,WeatherDisplay:10.37,2013-12-28 22:40:00,
2013-12-28 16:45:00,48.7,46.2,29.95,ENE,68,5.8,5.8,91,0.00,,,1.42,0.0,WeatherDisplay:10.37,2013-12-28 22:45:00,
2013-12-28 16:50:00,48.7,46.2,29.95,NE,45,3.5,3.5,91,0.00,,,1.42,0.0,WeatherDisplay:10.37,2013-12-28 22:50:00,
2013-12-28 16:55:00,48.7,46.2,29.92,ENE,68,2.3,2.3,91,0.00,,,1.42,0.0,WeatherDisplay:10.37,2013-12-28 22:55:00,
2013-12-28 17:00:00,48.7,46.2,29.92,ESE,112,5.8,5.8,91,0.00,,,1.42,0.0,WeatherDisplay:10.37,2013-12-28 23:00:00,
2013-12-28 17:05:00,48.7,46.2,29.92,NNE,22,3.6,3.6,91,0.00,,,1.42,0.0,WeatherDisplay:10.37,2013-12-28 23:05:00,
2013-12-28 17:10:00,48.7,46.2,29.89,NE,45,3.5,3.5,91,0.00,,,1.42,0.0,WeatherDisplay:10.37,2013-12-28 23:10:00,
2013-12-28 17:15:00,48.7,46.2,29.89,NE,45,2.3,2.3,91,0.00,,,1.42,0.0,WeatherDisplay:10.37,2013-12-28 23:15:00,
2013-12-28 17:20:00,48.7,46.2,29.89,NW,315,2.3,2.3,91,0.00,,,1.42,0.0,WeatherDisplay:10.37,2013-12-28 23:20:00,
2013-12-28 17:25:00,48.7,46.2,29.89,East,90,2.3,2.3,91,0.00,,,1.42,0.0,WeatherDisplay:10.37,2013-12-28 23:25:00,
2013-12-28 17:30:00,48.7,46.2,29.89,ENE,68,2.3,2.4,91,0.00,,,1.42,0.0,WeatherDisplay:10.37,2013-12-28 23:30:00,
2013-12-28 17:35:00,48.7,46.2,29.89,NNE,22,3.5,3.5,91,0.00,,,1.42,0.0,WeatherDisplay:10.37,2013-12-28 23:35:00,
2013-12-28 17:40:00,48.7,46.2,29.89,NE,45,3.1,0.0,91,0.00,,,1.42,0.0,WeatherDisplay:10.37,2013-12-28 23:40:00,
2013-12-28 17:45:00,48.7,46.2,29.89,NNE,22,2.3,2.3,91,0.00,,,1.42,0.0,WeatherDisplay:10.37,2013-12-28 23:45:00,
2013-12-28 17:50:00,48.7,46.2,29.89,NNE,22,2.9,2.9,91,0.00,,,1.42,0.0,WeatherDisplay:10.37,2013-12-28 23:50:00,
2013-12-28 17:55:00,48.7,46.2,29.89,ENE,68,2.3,2.3,91,0.00,,,1.42,0.0,WeatherDisplay:10.37,2013-12-28 23:55:00,
2013-12-28 18:00:00,48.7,46.2,29.89,East,90,3.1,3.1,91,0.05,RA,,1.47,0.0,WeatherDisplay:10.37,2013-12-29 00:00:00,
2013-12-28 18:05:00,48.6,46.1,29.89,NNE,22,2.3,2.3,91,0.05,RA,,1.47,0.0,WeatherDisplay:10.37,2013-12-29 00:05:00,
2013-12-28 18:10:00,48.6,46.1,29.86,East,90,2.4,2.4,91,0.05,RA,,1.47,0.0,WeatherDisplay:10.37,2013-12-29 00:10:00,
2013-12-28 18:15:00,48.4,45.9,29.86,ESE,112,3.5,3.5,91,0.05,,,1.47,0.0,WeatherDisplay:10.37,2013-12-29 00:15:00,
2013-12-28 18:20:00,48.4,45.9,29.86,ENE,68,5.8,5.8,91,0.05,,,1.47,0.0,WeatherDisplay:10.37,2013-12-29 00:20:00,
2013-12-28 18:25:00,48.4,45.9,29.89,NNW,338,2.3,2.3,91,0.05,,,1.47,0.0,WeatherDisplay:10.37,2013-12-29 00:25:00,
2013-12-28 18:30:00,48.4,45.9,29.89,North,0,2.3,2.3,91,0.05,,,1.47,0.0,WeatherDisplay:10.37,2013-12-29 00:30:00,
2013-12-28 18:35:00,48.4,45.9,29.89,NNE,22,1.2,1.2,91,0.05,,,1.47,0.0,WeatherDisplay:10.37,2013-12-29 00:35:00,
2013-12-28 18:40:00,48.4,45.9,29.92,WNW,292,2.4,2.4,91,0.05,,,1.47,0.0,WeatherDisplay:10.37,2013-12-29 00:40:00,
2013-12-28 18:45:00,48.4,45.9,29.92,WNW,292,3.5,3.5,91,0.05,,,1.47,0.0,WeatherDisplay:10.37,2013-12-29 00:45:00,
2013-12-28 18:50:00,48.6,46.1,29.92,West,270,3.5,3.5,91,0.05,,,1.47,0.0,WeatherDisplay:10.37,2013-12-29 00:50:00,
2013-12-28 18:55:00,48.6,46.1,29.95,NNW,338,2.3,2.3,91,0.05,,,1.47,0.0,WeatherDisplay:10.37,2013-12-29 00:55:00,
2013-12-28 19:00:00,48.7,46.2,29.95,NW,315,1.2,1.2,91,0.05,,,1.47,0.0,WeatherDisplay:10.37,2013-12-29 01:00:00,
2013-12-28 19:05:00,48.7,46.2,29.95,NNW,338,0.9,0.0,91,0.00,,,1.47,0.0,WeatherDisplay:10.37,2013-12-29 01:05:00,
2013-12-28 19:10:00,48.7,46.2,29.95,NNW,338,2.3,2.3,91,0.00,,,1.47,0.0,WeatherDisplay:10.37,2013-12-29 01:10:00,
2013-12-28 19:15:00,48.9,46.4,29.95,NNE,22,2.3,2.3,91,0.00,,,1.47,0.0,WeatherDisplay:10.37,2013-12-29 01:15:00,
2013-12-28 19:20:00,48.9,46.4,29.95,NNW,338,1.6,1.6,91,0.00,,,1.47,0.0,WeatherDisplay:10.37,2013-12-29 01:20:00,
2013-12-28 19:25:00,49.1,46.6,29.92,NNE,22,2.3,2.3,91,0.00,,,1.47,0.0,WeatherDisplay:10.37,2013-12-29 01:25:00,
2013-12-28 19:30:00,49.1,46.6,29.92,NNW,338,4.6,4.6,91,0.00,,,1.47,0.0,WeatherDisplay:10.37,2013-12-29 01:30:00,
2013-12-28 19:35:00,49.1,46.6,29.92,NNW,338,2.3,2.3,91,0.00,,,1.47,0.0,WeatherDisplay:10.37,2013-12-29 01:35:00,
2013-12-28 19:40:00,49.1,46.6,29.95,NNE,22,3.5,3.5,91,0.00,,,1.47,0.0,WeatherDisplay:10.37,2013-12-29 01:40:00,
2013-12-28 19:45:00,49.1,46.6,29.95,NNE,22,3.5,3.5,91,0.00,,,1.47,0.0,WeatherDisplay:10.37,2013-12-29 01:45:00,
2013-12-28 19:50:00,49.1,46.6,29.95,NNE,22,1.4,1.4,91,0.00,,,1.47,0.0,WeatherDisplay:10.37,2013-12-29 01:50:00,
2013-12-28 19:55:00,49.1,46.6,29.98,NNW,338,3.5,3.5,91,0.00,,,1.47,0.0,WeatherDisplay:10.37,2013-12-29 01:55:00,
2013-12-28 20:00:00,49.1,46.6,29.98,NW,315,2.3,2.3,91,0.00,,,1.47,0.0,WeatherDisplay:10.37,2013-12-29 02:00:00,
2013-12-28 20:05:00,48.9,46.4,29.98,NNW,338,1.4,1.4,91,0.00,,,1.47,0.0,WeatherDisplay:10.37,2013-12-29 02:05:00,
2013-12-28 20:10:00,49.1,46.6,29.95,NW,315,1.4,1.4,91,0.00,,,1.47,0.0,WeatherDisplay:10.37,2013-12-29 02:10:00,
2013-12-28 20:15:00,48.9,46.4,29.95,NNE,22,2.3,2.3,91,0.00,,,1.47,0.0,WeatherDisplay:10.37,2013-12-29 02:15:00,
2013-12-28 20:20:00,48.9,46.4,29.95,NNE,22,1.4,1.4,91,0.00,,,1.47,0.0,WeatherDisplay:10.37,2013-12-29 02:20:00,
2013-12-28 20:25:00,48.9,46.4,29.95,NNE,22,2.2,0.0,91,0.00,,,1.47,0.0,WeatherDisplay:10.37,2013-12-29 02:25:00,
2013-12-28 20:30:00,48.9,46.4,29.95,NNW,338,2.3,2.3,91,0.00,,,1.47,0.0,WeatherDisplay:10.37,2013-12-29 02:30:00,
2013-12-28 20:35:00,48.7,46.2,29.95,NW,315,3.5,3.5,91,0.00,,,1.47,0.0,WeatherDisplay:10.37,2013-12-29 02:35:00,
2013-12-28 20:40:00,48.7,46.2,29.92,NE,45,2.3,2.3,91,0.00,,,1.47,0.0,WeatherDisplay:10.37,2013-12-29 02:40:00,
2013-12-28 20:45:00,48.7,46.2,29.92,NW,315,2.3,0.0,91,0.00,,,1.47,0.0,WeatherDisplay:10.37,2013-12-29 02:45:00,
2013-12-28 20:50:00,48.7,46.2,29.92,NNW,338,2.3,2.3,91,0.00,,,1.47,0.0,WeatherDisplay:10.37,2013-12-29 02:50:00,
2013-12-28 20:55:00,48.7,46.2,29.92,NW,315,1.2,1.2,91,0.00,,,1.47,0.0,WeatherDisplay:10.37,2013-12-29 02:55:00,
2013-12-28 21:00:00,48.7,46.2,29.92,North,0,1.2,0.0,91,0.00,,,1.47,0.0,WeatherDisplay:10.37,2013-12-29 03:00:00,
2013-12-28 21:05:00,48.7,46.2,29.92,NNW,338,1.2,1.2,91,0.00,,,1.47,0.0,WeatherDisplay:10.37,2013-12-29 03:05:00,
2013-12-28 21:10:00,48.7,46.2,29.95,NW,315,2.3,2.3,91,0.00,,,1.47,0.0,WeatherDisplay:10.37,2013-12-29 03:10:00,
2013-12-28 21:15:00,48.7,46.2,29.95,NNE,22,2.3,2.3,91,0.00,,,1.47,0.0,WeatherDisplay:10.37,2013-12-29 03:15:00,
2013-12-28 21:20:00,48.7,46.2,29.95,ENE,68,0.0,0.0,91,0.00,,,1.47,0.0,WeatherDisplay:10.37,2013-12-29 03:20:00,
2013-12-28 21:25:00,48.6,46.1,29.92,ENE,68,2.3,2.3,91,0.00,,,1.47,0.0,WeatherDisplay:10.37,2013-12-29 03:25:00,
2013-12-28 21:30:00,48.6,46.1,29.92,NW,315,2.6,2.6,91,0.00,,,1.47,0.0,WeatherDisplay:10.37,2013-12-29 03:30:00,
2013-12-28 21:35:00,48.4,45.9,29.92,NNW,338,1.6,0.0,91,0.00,,,1.47,0.0,WeatherDisplay:10.37,2013-12-29 03:35:00,
2013-12-28 21:40:00,48.4,45.9,29.95,NNW,338,1.2,1.2,91,0.00,,,1.47,0.0,WeatherDisplay:10.37,2013-12-29 03:40:00,
2013-12-28 21:45:00,48.4,45.9,29.95,NNW,338,2.3,2.3,91,0.00,,,1.47,0.0,WeatherDisplay:10.37,2013-12-29 03:45:00,
2013-12-28 21:50:00,48.4,45.9,29.95,NNW,338,2.3,2.3,91,0.00,,,1.47,0.0,WeatherDisplay:10.37,2013-12-29 03:50:00,
2013-12-28 21:55:00,48.4,45.9,29.95,NNW,338,2.3,0.0,91,0.00,,,1.47,0.0,WeatherDisplay:10.37,2013-12-29 03:55:00,
2013-12-28 22:00:00,48.4,45.9,29.95,NNW,338,2.3,2.3,91,0.00,,,1.47,0.0,WeatherDisplay:10.37,2013-12-29 04:00:00,
2013-12-28 22:05:00,48.2,45.7,29.95,NNW,338,3.5,3.5,91,0.00,,,1.47,0.0,WeatherDisplay:10.37,2013-12-29 04:05:00,
2013-12-28 22:10:00,48.2,45.7,29.95,NNW,338,2.4,2.4,91,0.00,,,1.47,0.0,WeatherDisplay:10.37,2013-12-29 04:10:00,
2013-12-28 22:15:00,48.2,45.7,29.95,NNW,338,2.3,2.3,91,0.00,,,1.47,0.0,WeatherDisplay:10.37,2013-12-29 04:15:00,
2013-12-28 22:20:00,48.2,45.7,29.95,NNW,338,2.3,2.3,91,0.00,,,1.47,0.0,WeatherDisplay:10.37,2013-12-29 04:20:00,
2013-12-28 22:25:00,48.2,45.7,29.95,North,0,2.3,2.3,91,0.00,,,1.47,0.0,WeatherDisplay:10.37,2013-12-29 04:25:00,
2013-12-28 22:30:00,48.2,45.7,29.95,NNW,338,1.2,0.0,91,0.00,,,1.47,0.0,WeatherDisplay:10.37,2013-12-29 04:30:00,
2013-12-28 22:35:00,48.2,45.7,29.95,WNW,292,1.2,1.2,91,0.00,,,1.47,0.0,WeatherDisplay:10.37,2013-12-29 04:35:00,
2013-12-28 22:40:00,48.2,45.7,29.95,NNW,338,2.3,2.3,91,0.00,,,1.47,0.0,WeatherDisplay:10.37,2013-12-29 04:40:00,
2013-12-28 22:45:00,48.2,45.7,29.95,NNW,338,2.3,2.3,91,0.00,,,1.47,0.0,WeatherDisplay:10.37,2013-12-29 04:45:00,
2013-12-28 22:50:00,48.2,45.7,29.95,NNW,338,2.3,2.3,91,0.00,,,1.47,0.0,WeatherDisplay:10.37,2013-12-29 04:50:00,
2013-12-28 22:55:00,48.0,45.5,29.95,NNE,22,2.3,2.3,91,0.00,,,1.47,0.0,WeatherDisplay:10.37,2013-12-29 04:55:00,
2013-12-28 23:00:00,48.0,45.5,29.95,NNW,338,2.3,2.3,91,0.00,,,1.47,0.0,WeatherDisplay:10.37,2013-12-29 05:00:00,
2013-12-28 23:01:00,48.0,45.5,29.95,NNW,338,2.3,2.3,91,0.00,,,1.47,0.0,WeatherDisplay:10.37,2013-12-29 05:01:00,
2013-12-28 23:02:00,48.0,45.5,29.95,NNW,338,1.4,1.4,91,0.00,,,1.47,0.0,WeatherDisplay:10.37,2013-12-29 05:02:00,
2013-12-28 23:07:00,48.0,45.5,29.92,NW,315,1.2,0.0,91,0.00,,,1.47,0.0,WeatherDisplay:10.37,2013-12-29 05:07:00,
2013-12-28 23:12:00,48.0,45.5,29.92,NNW,338,1.2,0.0,91,0.00,,,1.47,0.0,WeatherDisplay:10.37,2013-12-29 05:12:00,
2013-12-28 23:17:00,48.0,45.5,29.92,NNW,338,2.6,2.6,91,0.00,,,1.47,0.0,WeatherDisplay:10.37,2013-12-29 05:17:00,
2013-12-28 23:22:00,48.0,45.5,29.92,NNW,338,1.4,1.4,91,0.00,,,1.47,0.0,WeatherDisplay:10.37,2013-12-29 05:22:00,
2013-12-28 23:27:00,48.0,45.5,29.92,NNE,22,2.3,2.3,91,0.00,,,1.47,0.0,WeatherDisplay:10.37,2013-12-29 05:27:00,
2013-12-28 23:32:00,48.2,45.7,29.92,North,0,1.2,0.0,91,0.00,,,1.47,0.0,WeatherDisplay:10.37,2013-12-29 05:32:00,
2013-12-28 23:37:00,48.2,45.7,29.95,East,90,0.0,0.0,91,0.00,,,1.47,0.0,WeatherDisplay:10.37,2013-12-29 05:37:00,
2013-12-28 23:42:00,48.0,45.5,29.95,North,0,2.0,2.0,91,0.00,,,1.47,0.0,WeatherDisplay:10.37,2013-12-29 05:42:00,
2013-12-28 23:47:00,48.0,45.5,29.95,NNW,338,1.2,0.0,91,0.00,,,1.47,0.0,WeatherDisplay:10.37,2013-12-29 05:47:00,
2013-12-28 23:52:00,48.0,45.5,29.89,NE,45,1.2,1.2,91,0.00,,,1.47,0.0,WeatherDisplay:10.37,2013-12-29 05:52:00,
2013-12-28 23:57:00,48.0,45.5,29.89,East,90,1.2,0.0,91,0.00,,,1.47,0.0,WeatherDisplay:10.37,2013-12-29 05:57:00,